Regional Weather Roundup
Issued by NWS

Home | Current Version | Previous Version | Graphics & Text | Print | Product List | Glossary On
Versions: 1 2 3 4 5 6 7 8 9 10 11 12 13 14 15 16 17 18 19 20 21 22 23 24 25 26 27 28 29 30 31 32 33 34 35 36 37 38 39 40 41 42 43 44 45 46 47 48 49 50
000
ASUS43 KBIS 041602
RWRND

NORTH DAKOTA REGIONAL WEATHER ROUNDUP
NATIONAL WEATHER SERVICE BISMARCK ND
1100 AM CDT TUE AUG 04 2015

NOTE: "FAIR" INDICATES FEW OR NO CLOUDS BELOW 12,000 FEET WITH NO
SIGNIFICANT WEATHER AND/OR OBSTRUCTIONS TO VISIBILITY.


NDZ001>003-009>011-017-041700-
NORTHWEST NORTH DAKOTA

CITY           SKY/WX    TMP DP  RH WIND       PRES   REMARKS
WILLISTON      SUNNY     78  49  35 SE13G23   29.97S
MINOT          SUNNY     73  52  47 VRB7      30.00F
MINOT AFB      SUNNY     76  51  41 SE7       29.99F
$$

NDZ018>021-031>035-040>046-041700-
SOUTHWEST NORTH DAKOTA

CITY           SKY/WX    TMP DP  RH WIND       PRES   REMARKS
BISMARCK       SUNNY     76  56  49 VRB6      30.01R
DICKINSON      SUNNY     75  56  51 SE14      29.98S
GARRISON         N/A     72  57  59 SE9       30.01R
HETTINGER ARPT SUNNY     74  58  57 SE10      30.00S
$$

NDZ004>008-012>016-024-026-027-054-041700-
NORTHEAST NORTH DAKOTA

CITY           SKY/WX    TMP DP  RH WIND       PRES   REMARKS
GRAND FORKS    MOSUNNY   69  54  58 NE5       30.03S
GRND FRKS AFB  SUNNY     68  54  61 VRB2      30.04S
DEVILS LAKE    SUNNY     70  52  52 SE8       30.03S
$$

NDZ022-023-025-028>030-036>039-047>053-041700-
SOUTHEAST NORTH DAKOTA

CITY           SKY/WX    TMP DP  RH WIND       PRES   REMARKS
FARGO          SUNNY     73  51  46 N7        30.02S
JAMESTOWN      SUNNY     72  52  49 E6        30.02S
$$




USA.gov is the U.S. government's official web portal to all federal, state and local government web resources and services.